Location: Hamilton Branch State Park
(33.7552°N, 82.2209°W)
Time: 09:43:49
(UTC-04:00)

N. Korean satellite - Visible Passes

Search period start: 23 October 2019 00:00
Search period end: 02 November 2019 00:00
Orbit: 455 x 508 km, 97.2° (Epoch: 22 October)

Date Brightness Start Highest point End Pass type
(mag) Time Alt. Az. Time Alt. Az. Time Alt. Az.
23 Oct 9.9 19:32:28 10° SW 19:34:41 16° W 19:36:55 10° NW visible
24 Oct 7.9 07:01:06 10° NNE 07:04:39 45° E 07:08:11 10° S visible
25 Oct 9.6 06:36:27 10° NE 06:39:16 21° E 06:42:05 10° SE visible
27 Oct 9.6 19:24:06 10° SSW 19:26:45 21° W 19:29:26 10° NW visible
28 Oct 8.5 06:53:20 10° NNE 06:56:46 35° E 07:00:11 10° SSE visible
29 Oct 10.0 06:28:55 10° NE 06:31:21 17° E 06:33:47 10° SE visible
30 Oct 10.2 19:42:50 10° WSW 19:44:14 12° W 19:45:39 10° WNW visible
31 Oct 7.2 07:10:31 10° NNE 07:14:12 65° E 07:17:53 10° S visible
31 Oct 9.1 19:15:49 10° SSW 19:18:47 27° W 19:21:47 10° NW visible
01 Nov 9.0 06:45:36 10° NE 06:48:50 28° E 06:52:04 10° SSE visible
